Flag for Spain Past Weather in Santa Cruz de Tenerife, Canary Islands, Spain — Yesterday and Last 2 Weeks

Now
61 °F

Scattered clouds.


Feels Like: 61 °F
Forecast: 68 / 74 °F
Wind: 24 mph from Northwest

Location: Tenerife / Los Rodeos

Current Time: Jun 30, 2016 at 8:37:19 PM

Latest Report: Jun 30, 2016 at 8:00 PM


Visibility: N/A

Pressure: 30.21 "Hg

Humidity: 88%

Dew Point: 57 °F

Location of Santa Cruz de TenerifeLocation

Past Weather in Santa Cruz de Tenerife — Graph

°F

Santa Cruz de Tenerife Temperature Yesterday

Maximum temperature yesterday: 68 °F (at 12:30 PM)
Minimum temperature yesterday: 61 °F (at 3:00 AM)
Average temperature yesterday: 63 °F

High & Low Weather Summary for the Past Weeks

 TemperatureHumidityPressure
High93 °F (Jun 24, 4:30 PM)100% (Jun 15, 10:30 PM)30.33 "Hg (Jun 15, 10:30 PM)
Low55 °F (Jun 19, 6:00 AM)21% (Jun 24, 12:30 PM)30.04 "Hg (Jun 22, 6:00 AM)
Average65 °F76%30.16 "Hg
* Reported Jun 15 7:00 PM — Jun 30 7:30 PM, Santa Cruz de Tenerife, Weather by CustomWeather, © 2016

Note: Actual official high and low records may vary slightly from our data, if they occured in-between our weather recording intervals... More about our weather records

Advertising

Santa Cruz de Tenerife Weather History for the Previous 24 Hours

Scroll right to see more
 ConditionsComfort  
Time TempWeatherWind HumidityBarometerVisibility
7:30 PM
Thu, Jun 30
63 °FScattered clouds.25 mph83%30.21 "HgN/A
7:00 PM64 °FScattered clouds.20 mph78%30.21 "HgN/A
6:30 PM66 °FScattered clouds.21 mph73%30.21 "HgN/A
6:00 PM66 °FScattered clouds.20 mph78%30.21 "HgN/A
5:30 PM66 °FScattered clouds.20 mph78%30.21 "HgN/A
5:00 PM66 °FScattered clouds.20 mph83%30.21 "HgN/A
4:30 PM66 °FScattered clouds.18 mph83%30.21 "HgN/A
4:00 PM68 °FScattered clouds.21 mph73%30.21 "HgN/A
3:30 PM68 °FScattered clouds.21 mph78%30.24 "HgN/A
3:00 PM68 °FScattered clouds.21 mph78%30.24 "HgN/A
2:30 PM70 °FScattered clouds.20 mph73%30.24 "HgN/A
2:00 PM68 °FPassing clouds.20 mph73%30.24 "HgN/A
1:30 PM68 °FScattered clouds.17 mph73%30.24 "HgN/A
1:00 PM68 °FScattered clouds.18 mph73%30.24 "HgN/A
12:30 PM66 °FScattered clouds.17 mph83%30.24 "HgN/A
12:00 PM66 °FScattered clouds.17 mph78%30.24 "Hg6 mi
11:30 AM66 °FPartly sunny.16 mph83%30.24 "Hg6 mi
11:00 AM66 °FScattered clouds.15 mph78%30.24 "HgN/A
10:30 AM64 °FScattered clouds.15 mph83%30.24 "HgN/A
10:00 AM64 °FScattered clouds.16 mph83%30.21 "HgN/A
9:30 AM63 °FScattered clouds.15 mph88%30.21 "HgN/A
9:00 AM63 °FScattered clouds.15 mph88%30.21 "HgN/A
8:30 AM61 °FPartly sunny.16 mph100%30.21 "Hg6 mi
8:00 AM61 °FCool.15 mph94%30.21 "Hg4 mi
7:53 AM61 °FCool.16 mph94%30.21 "Hg4 mi
7:30 AM61 °FPassing clouds.17 mph94%30.18 "Hg6 mi
7:00 AM59 °FPassing clouds.17 mph100%30.18 "Hg6 mi
6:30 AM59 °FPassing clouds.16 mph100%30.18 "Hg6 mi
6:00 AM59 °FPartly cloudy.16 mph100%30.18 "Hg5 mi
5:30 AM59 °FFog.18 mph100%30.18 "Hg4 mi
5:00 AM61 °FCool.15 mph100%30.18 "Hg1 mi
4:30 AM61 °FCool.18 mph100%30.18 "Hg1 mi
4:00 AM61 °FCool.16 mph100%30.18 "Hg1 mi
3:30 AM61 °FFog.13 mph100%30.18 "Hg4 mi
3:00 AM61 °FCool.14 mph100%30.18 "Hg2 mi
2:30 AM61 °FCool.15 mph100%30.18 "Hg1 mi
2:00 AM61 °FCool.16 mph100%30.21 "Hg2 mi
1:30 AM61 °FFog.16 mph100%30.21 "HgN/A
1:00 AM61 °FPassing clouds.13 mph94%30.21 "HgN/A
12:30 AM63 °FMild.15 mph94%30.21 "Hg2 mi
12:00 AM63 °FLight fog.15 mph94%30.21 "Hg5 mi
11:30 PM
Wed, Jun 29
61 °FCool.15 mph100%30.21 "Hg3 mi
11:00 PM63 °FMild.16 mph94%30.21 "Hg3 mi
10:30 PM63 °FPassing clouds.16 mph94%30.18 "Hg1 mi
10:00 PM63 °FMild.16 mph94%30.18 "Hg2 mi
9:30 PM63 °FMild.16 mph94%30.18 "HgN/A
9:00 PM63 °FMild.17 mph94%30.18 "Hg4 mi
8:30 PM63 °FMild.15 mph94%30.18 "Hg4 mi
8:00 PM63 °FDrizzle. Fog.17 mph100%30.18 "Hg0 mi
Weather by CustomWeather, © 2016

See weather overviewHow to use our weather pages